Location: Unspecified
(0.0000°N, 0.0000°E)
Time: 10:15:28
(UTC+00:00)

N. Korean satellite - Pass Details

Date: 19 February 2019
Orbit: 457 x 508 km, 97.2° (Epoch: 22 April)

Event Time Altitude Azimuth Distance (km) Brightness Sun altitude
Rises 05:12:51 0° 35° (NE) 2,461 10.5 -15.0°
Reaches altitude 10° 05:15:15 10° 53° (NE) 1,591 9.8 -14.4°
Maximum altitude 05:17:48 20° 101° (E) 1,123 9.5 -13.7°
Drops below altitude 10° 05:20:21 10° 150° (SSE) 1,603 9.8 -13.1°
Sets 05:22:47 0° 167° (SSE) 2,486 10.5 -12.5°
